Weather History for Salt Lake City, UT

Change the Weather History Date:

Thursday, August 2, 2012

  Actual Average Record
Temperature  
Mean Temperature 83 °F 80 °F  
Max Temperature 95 °F 94 °F 103 °F (1992)
Min Temperature 71 °F 66 °F 45 °F (1928)
Degree Days  
Heating Degree Days 0 0  
Month to date heating degree days 0 0  
Since 1 June heating degree days 38 48  
Since 1 July heating degree days 0 2  
Cooling Degree Days 18 15  
Month to date cooling degree days 39 30  
Year to date cooling degree days 959 692  
Since 1 June cooling degree days 881 642  
Growing Degree Days 33 (Base 50)    
Moisture  
Dew Point 40 °F    
Average Humidity 27    
Maximum Humidity 41    
Minimum Humidity 12    
Precipitation  
Precipitation 0.00 in 0.02 in 1.72 in (1930)
Month to date precipitation 0.00 0.04  
Year to date precipitation 7.25 9.86  
Snow  
Snow 0.00 in 0.00 in - ()
Month to date snowfall 0.0 0.0  
Since 1 July snowfall 0.0 0.0  
Snow Depth 0.00 in    
Sea Level Pressure  
Sea Level Pressure 29.84 in    
Wind  
Wind Speed 7 mph (SSE)    
Max Wind Speed 16 mph    
Max Gust Speed 21 mph    
Visibility 10 miles    
Events      
T = Trace of Precipitation, MM = Missing Value Source: NWS Daily Summary

Daily Weather History Graph

Daily Weather History Graph

Search for Another Location

Airport:

Trip Planner

Search our weather history database for the weather conditions in past years. The results will help you decide how hot, cold, wet, or windy it might be!

Date:

Astronomy

Aug. 02, 2012 Rise Set
Actual Time 6:25 AM MDT 8:41 PM MDT
Civil Twilight 5:55 AM MDT 9:12 PM MDT
Nautical Twilight 5:17 AM MDT 9:49 PM MDT
Astronomical Twilight 4:35 AM MDT 10:31 PM MDT
Moon 8:48 PM MDT (8/2) 7:07 AM MDT (8/2)
Length of Visible Light 15h 16m
Length of Day
14h 15m
Full, 100% of the Moon is Illuminated
Aug 2
Full
Aug 9
Last Quarter
Aug 17
New
Aug 24
First Quarter
Aug 31
Full

Hourly Weather History & Observations

Time (MDT) Temp. Dew Point Humidity Pressure Visibility Wind Dir Wind Speed Gust Speed Precip Events Conditions
12:53 AM 77.0 °F 42.1 °F 29% 29.87 in 10.0 mi SE 8.1 mph - N/A   Mostly Cloudy
1:53 AM 77.0 °F 42.1 °F 29% 29.87 in 10.0 mi South 3.5 mph - N/A   Mostly Cloudy
2:53 AM 77.0 °F 50.0 °F 39% 29.86 in 10.0 mi SW 3.5 mph - N/A   Scattered Clouds
3:53 AM 77.0 °F 48.0 °F 36% 29.87 in 10.0 mi SE 5.8 mph - N/A   Scattered Clouds
4:53 AM 75.9 °F 48.9 °F 38% 29.87 in 10.0 mi SSE 10.4 mph - N/A   Scattered Clouds
5:53 AM 72.0 °F 46.9 °F 41% 29.88 in 10.0 mi SSE 6.9 mph - N/A   Scattered Clouds
6:53 AM 73.0 °F 46.0 °F 38% 29.89 in 10.0 mi SSE 10.4 mph - N/A   Partly Cloudy
7:53 AM 77.0 °F 50.0 °F 39% 29.89 in 10.0 mi SSE 6.9 mph - N/A   Scattered Clouds
8:53 AM 80.1 °F 50.0 °F 35% 29.90 in 10.0 mi SSE 8.1 mph - N/A   Scattered Clouds
9:53 AM 84.0 °F 48.9 °F 29% 29.90 in 10.0 mi South 9.2 mph - N/A   Scattered Clouds
10:53 AM 88.0 °F 48.0 °F 25% 29.89 in 10.0 mi SSW 10.4 mph 20.7 mph N/A   Scattered Clouds
11:53 AM 88.0 °F 46.9 °F 24% 29.88 in 10.0 mi Variable 4.6 mph - N/A   Mostly Cloudy
12:53 PM 91.0 °F 48.0 °F 23% 29.87 in 10.0 mi WNW 4.6 mph - N/A   Mostly Cloudy
1:53 PM 91.9 °F 48.9 °F 23% 29.86 in 10.0 mi North 9.2 mph - N/A   Mostly Cloudy
2:53 PM 93.9 °F 39.0 °F 15% 29.84 in 10.0 mi Variable 6.9 mph 18.4 mph N/A   Mostly Cloudy
3:53 PM 93.2 °F 41.0 °F 16% 30.02 in 10.0 mi North 10.4 mph - N/A   Mostly Cloudy
4:53 PM 93.9 °F 32.0 °F 11% 29.80 in 10.0 mi North 9.2 mph 18.4 mph N/A   Scattered Clouds
5:53 PM 93.9 °F 30.0 °F 10% 29.79 in 10.0 mi North 10.4 mph 16.1 mph N/A   Scattered Clouds
6:53 PM 93.0 °F 27.0 °F 9% 29.77 in 10.0 mi NNE 5.8 mph - N/A   Scattered Clouds
7:53 PM 91.0 °F 25.0 °F 9% 29.75 in 10.0 mi ENE 4.6 mph - N/A   Scattered Clouds
8:53 PM 88.0 °F 24.1 °F 10% 29.74 in 10.0 mi SE 3.5 mph - N/A   Scattered Clouds
9:53 PM 80.1 °F 30.9 °F 17% 29.75 in 10.0 mi South 6.9 mph - N/A   Scattered Clouds
10:53 PM 79.0 °F 26.1 °F 14% 29.74 in 10.0 mi SE 9.2 mph - N/A   Partly Cloudy
11:53 PM 75.9 °F 25.0 °F 15% 29.74 in 10.0 mi SE 9.2 mph - N/A   Clear